Chamberlain, SD

5:50 AM CDT on June 25, 2017 (GMT -0500)
Chamberlain

Weather History for K9V9 - February, 2013

Change the Weather History Date:

Friday, February 8, 2013

  Actual Average Record
Temperature  
Mean Temperature 35 °F -  
Max Temperature 45 °F 33 °F 66 °F (2000)
Min Temperature 25 °F 12 °F -16 °F (2011)
Degree Days  
Heating Degree Days 30    
Moisture  
Dew Point 25 °F    
Average Humidity 76    
Maximum Humidity 92    
Minimum Humidity 53    
Precipitation  
Precipitation 0.00 in - - ()
Sea Level Pressure  
Sea Level Pressure 30.07 in    
Wind  
Wind Speed 18 mph (SSE)    
Max Wind Speed 26 mph    
Max Gust Speed 50 mph    
Averages and records for this station are not official NWS values.
T = Trace of Precipitation, MM = Missing Value Source: NWS Daily Summary

Daily Weather History Graph

Daily Weather History Graph

Search for Another Location

Airport or City:

Trip Planner

Search our weather history database for the weather conditions in past years. The results will help you decide how hot, cold, wet, or windy it might be!

Date:

Astronomy

Feb. 08, 2013 Rise Set
Actual Time 7:45 AM CST 5:58 PM CST
Civil Twilight 7:15 AM CST 6:28 PM CST
Nautical Twilight 6:41 AM CST 7:02 PM CST
Astronomical Twilight 6:07 AM CST 7:35 PM CST
Moon 6:16 AM CST (2/8) 4:32 PM CST (2/8)
Length of Visible Light 11h 12m
Length of Day
10h 12m
Waning Crescent, 3% of the Moon is Illuminated
Feb 8
Waning Crescent
Feb 10
New
Feb 17
First Quarter
Feb 25
Full
Mar 4
Last Quarter

Hourly Weather History & Observations

Time (CST) Temp. Windchill Dew Point Humidity Pressure Visibility Wind Dir Wind Speed Gust Speed Precip Events Conditions
12:52 AM 25.0 °F 13.6 °F 21.9 °F 88% 30.27 in - SE 12.7 mph - N/A   Unknown
1:52 AM 25.0 °F 12.6 °F 21.9 °F 88% 30.25 in - SE 15.0 mph - N/A   Unknown
2:52 AM 25.0 °F 12.2 °F 21.9 °F 88% 30.25 in - SSE 16.1 mph - N/A   Unknown
3:52 AM 25.0 °F 13.6 °F 21.9 °F 88% 30.24 in - SSE 12.7 mph - N/A   Unknown
4:52 AM 25.0 °F 11.7 °F 21.9 °F 88% 30.22 in - SE 17.3 mph - N/A   Unknown
5:52 AM 25.0 °F 11.3 °F 23.0 °F 92% 30.21 in - SE 18.4 mph 24.2 mph N/A   Unknown
6:52 AM 25.0 °F 10.2 °F 23.0 °F 92% 30.19 in - SE 21.9 mph - N/A   Unknown
7:52 AM 25.0 °F 10.6 °F 23.0 °F 92% 30.18 in - SE 20.7 mph 26.5 mph N/A   Unknown
8:52 AM 26.1 °F 12.7 °F 23.0 °F 88% 30.18 in - SE 18.4 mph 26.5 mph N/A   Unknown
9:52 AM 27.0 °F 13.9 °F 24.1 °F 89% 30.17 in - SSE 18.4 mph 49.5 mph N/A   Unknown
10:52 AM 30.0 °F 17.5 °F 25.0 °F 82% 30.14 in - SSE 19.6 mph 27.6 mph N/A   Unknown
11:52 AM 34.0 °F 21.0 °F 26.1 °F 73% 30.09 in - SSE 26.5 mph 33.4 mph N/A   Unknown
12:52 PM 37.0 °F 25.6 °F 28.0 °F 70% 30.04 in - SSE 24.2 mph 29.9 mph N/A   Unknown
1:52 PM 41.0 °F 30.5 °F 28.0 °F 60% 29.98 in - SSE 26.5 mph 34.5 mph N/A   Unknown
2:52 PM 45.0 °F 36.0 °F 28.9 °F 53% 29.94 in - SSE 25.3 mph - N/A   Unknown
3:52 PM 44.1 °F 35.2 °F 28.0 °F 53% 29.94 in - SSE 23.0 mph 31.1 mph N/A   Unknown
4:52 PM 43.0 °F 33.3 °F 28.0 °F 56% 29.92 in - SSE 25.3 mph 32.2 mph N/A   Unknown
5:52 PM 39.0 °F 28.5 °F 27.0 °F 62% 29.91 in - SSE 23.0 mph - N/A   Unknown
6:52 PM 37.0 °F 27.0 °F 26.1 °F 65% 29.92 in - SSE 18.4 mph - N/A   Unknown
7:52 PM 36.0 °F 24.2 °F 26.1 °F 67% 29.91 in - SSE 24.2 mph - N/A   Unknown
8:52 PM 35.1 °F 24.1 °F 26.1 °F 70% 29.92 in - SSE 19.6 mph - N/A   Unknown
9:52 PM 35.1 °F 26.4 °F 26.1 °F 70% 29.92 in - SSE 12.7 mph - N/A   Unknown
10:52 PM 35.1 °F 27.9 °F 26.1 °F 70% 29.92 in - SSE 9.2 mph - N/A   Unknown
11:52 PM 34.0 °F 24.6 °F 26.1 °F 73% 29.91 in - South 13.8 mph - N/A   Unknown